DELTA 1 DEB, 42642

Orbit data source: Space-Track

DELTA 1 DEB, 42642 is space debris in SSO originally from a launch on Thu, 12 Jun 1975 UTC launched from the Air Force Western Test Range (AFWTR). Debris objects in space refer to the collection of defunct objects orbiting the Earth. Examples of debris include non-operational satellites, rocket bodies, and fragments generated from explosions, collisions, or faulty payload assembly.

Loading next visibility...
Identifier
42642, 1975-052MB
Orbit
SSO
Country
Flag of USUS
Related business
Manufacturer
Unknown
Mission
Spacecraft
Bus & Motor
Unknown
Mass
Unknown
Launch date (UTC)
1975-06-12 (50 years ago)
Launch vehicle
Unknown
Launch site
Air Force Western Test Range (AFWTR)
Object type
Payload
Rocket body
Debris
Shape & HBR
Unknown
Radar Cross Section
Small (<0.1 m²)

Expand to show TLE details & history
Last TLE update: 5 days ago

TLE from 5 days ago
0 DELTA 1 DEB
1 42642U 75052MB  25256.50677052  .00000081  00000-0  25550-3 0  9998
2 42642  99.8883 359.8813 0075011 314.0084  45.4873 13.31389580574240
Epoch: 2025-09-13T12:09Z
TLE epoch observation values (Epoch: 2025-09-13T12:09:44.972Z)
Latitude
-0.00003°
Longitude
-175.29522°
Altitude
1,104.946 km
Speed
7.319 km/s
True Right ascension
23h 59m 31s
True Declination
0° 00' 00"
Sunlit
Object was in full shadow at epoch
Visualization orbit readout
Latitude
Unknown
Longitude
Unknown
Altitude
Unknown
Speed
Unknown
Apparent Right ascension
Unknown
Apparent Declination
Unknown
Sunlit
N/A
Visualization observer readout
Local Sidereal Time
21:32:21
Azimuth
Unknown
Elevation
Unknown
Doppler factor
Unknown
Orbital elements
Apogee altitude
1,195.248 km
Perigee altitude
1,082.476 km
Semi-major axis
7,516.999 km
Eccentricity
0.0075
Inclination
99.8883°
RAAN
359.8813°
Arg. of periapsis
314.0084°
True anomaly
46.10429°
Mean anomaly
45.4873°
Eccentric anomaly
45.79539°
Mean motion
3.33025 °/min
Orbital period
108.1 mins
BSTAR
0.0002555
Loading maneuver chart data...
Computing Atmospheric mass density...
Loading historical data...
Loading historical data...
Loading historical data...
Loading historical data...
Loading historical data...
Loading historical data...
Loading historical data...

Documentation

Showing up to 5 results
|